Location: Murphys Corner
(39.1062°N, 77.8244°W)
Time: 12:17:11
(UTC+00:00)

ISS - Visible Passes

Search period start: 29 January 2023 00:00
Search period end: 08 February 2023 00:00
Orbit: 413 x 419 km, 51.6° (Epoch: 29 January)

Date Brightness Start Highest point End Pass type
(mag) Time Alt. Az. Time Alt. Az. Time Alt. Az.
29 Jan -1.4 22:58:37 10° N 22:59:50 11° N 23:01:02 10° NNE visible
30 Jan -1.2 00:34:18 10° NW 00:35:05 15° NNW 00:35:05 15° NNW visible
30 Jan -2.3 23:45:51 10° NNW 23:48:35 22° NNE 23:48:40 22° NNE visible
31 Jan -1.9 22:57:25 10° NNW 22:59:41 17° NNE 23:01:56 10° ENE visible
01 Feb -2.0 00:33:27 10° NW 00:35:16 29° NW 00:35:16 29° NW visible
01 Feb -3.5 23:44:48 10° NW 23:48:05 47° NE 23:49:05 34° E visible
03 Feb -2.1 00:32:54 10° WNW 00:35:56 31° SW 00:36:01 31° SW visible
03 Feb -3.2 23:43:55 10° WNW 23:47:14 59° SW 23:50:15 12° SE visible
05 Feb -0.5 00:33:48 10° WSW 00:34:41 11° SW 00:35:36 10° SW visible
05 Feb -1.0 23:43:32 10° W 23:46:03 20° SW 23:48:33 10° S visible
